User: anonymous   Login
Location: Dürabuch
(48.2640°N, 11.2185°E)
Time: 18:48:50
(UTC+00:00)
Language:

Okean 2 - Orbit

View from above orbital plane
View from above orbital plane
View from above satellite
View from above satellite

Ground track
Ground track

The orbit data is extracted from the following two-line orbital elements,

1 20510U 90018A   24199.57937341  .00007919  00000-0  52972-3 0  9994
2 20510  82.5117 200.6612 0009638 214.2176 285.4586 15.06782326848323
Epoch (UTC): 17 July 2024 13:54:17
Eccentricity: 0.0009638
inclination: 82.5117°
perigee height: 539 km
apogee height: 553 km
right ascension of ascending node: 200.6612°
argument of perigee: 214.2176°
revolutions per day: 15.06782326
mean anomaly at epoch: 285.4586°
orbit number at epoch: 84832

The dashed part of the orbit path shows where the satellite is in the earth's shadow,  

DLR